Weather Roundup
Issued by NWS

Home | Current Version | Previous Version | Graphics & Text | Print | Product List | Glossary Off
Versions: 1 2 3 4 5 6 7 8 9 10 11 12 13 14 15 16 17 18 19 20 21 22 23 24 25 26 27 28 29 30 31 32 33 34 35 36 37 38 39 40 41 42 43 44 45 46 47 48 49 50

189
NZUS93 KARX 040110
HRRWXR

CURRENT HOURLY OBSERVATIONS ACROSS
MUCH OF THE UPPER MISSISSIPPI VALLEY
NATIONAL WEATHER SERVICE LA CROSSE WI
800 PM CDT TUE MAY 03 2016


...SOUTHEAST MINNESOTA...


CITY           SKY/WX    TMP DP  RH WIND       PRES   REMARKS
ROCHESTER      LGT RAIN  59  47  64 NW8G31    29.67F
ROCHESTER/MAYO MOCLDY    63  42  46 W9G28     29.66F
WINONA         MOCLDY    70  41  35 NW12      29.63F
AUSTIN         CLOUDY    64  43  45 W6        29.67F
ALBERT LEA     CLOUDY    66  39  37 W8        29.68F
DODGE CENTER   MOCLDY    64  41  42 N9        29.67S
PRESTON        MOCLDY    62  43  49 W12       29.67F
OWATONNA       CLOUDY    66  39  37 W13       29.67S
FARIBAULT      CLOUDY    70  37  30 W16G25    29.67F
$$

...ELSEWHERE IN MINNESOTA...


CITY           SKY/WX    TMP DP  RH WIND       PRES   REMARKS
MINNEAPOLIS    PTCLDY    67  27  22 N20G29    29.69R
INTNL FALLS    PTCLDY    54  32  43 NE13      29.89R
DULUTH         PTCLDY    58  30  34 N18G26    29.75R
RED WING       PTCLDY    63  43  48 CALM      29.65R
REDWOOD FALLS  CLEAR     67  22  18 N13G30    29.77R
MANKATO        CLEAR    N/A N/A N/A NW23G30   29.69R
WORTHINGTON    CLEAR     63  36  36 N22       29.80R
FAIRMONT       CLOUDY    66  34  30 NW13G22   29.74R
$$

...SOUTHWEST WISCONSIN...


CITY           SKY/WX    TMP DP  RH WIND       PRES   REMARKS
LA CROSSE      MOCLDY    67  39  35 SW10      29.62F
PRAIRIE DU CHI PTCLDY    64  36  35 SW8       29.68F
LONE ROCK      CLOUDY    65  38  36 W7        29.69F
PLATTEVILLE    MOCLDY    61  42  48 SW10      29.72F
FORT MC COY    MOCLDY    64  38  37 CALM      29.65S
CAMP DOUGLAS   MOCLDY    63  41  45 N12       29.66R
MAUSTON-NEW LI MOCLDY    64  37  37 SW9       29.63F
VIROQUA        MOCLDY    61  37  40 W10       29.67F
WIS DELLS      CLOUDY    62  35  36 W13       29.67F
$$

...ELSEWHERE IN WISCONSIN...


CITY           SKY/WX    TMP DP  RH WIND       PRES   REMARKS
MILWAUKEE      CLOUDY    64  36  35 SW10      29.71F
MADISON        CLOUDY    62  38  40 VRB6      29.69F
GREEN BAY      CLOUDY    54  46  74 N6        29.68F
EAU CLAIRE     PTCLDY    54  49  83 NE5       29.67R
BLACK RVR FLS  TSTM      53  47  82 SE6       29.67R
MEDFORD        MOCLDY    48  48  99 E5        29.70R
WAUSAU         CLOUDY    49  45  86 NE3       29.69R
WIS RAPIDS     RAIN      50  47  89 SE9       29.70R FOG
MARSHFIELD     CLOUDY    51  46  83 SE3       29.67F
RICE LAKE      CLEAR     63  30  28 N12       29.69R
$$

...NORTHEAST IOWA...


CITY           SKY/WX    TMP DP  RH WIND       PRES   REMARKS
WATERLOO       NOT AVBL
DUBUQUE        PTCLDY    59  42  53 SW12      29.74F
DECORAH        CLEAR     64  43  45 W8G14     29.68F
MASON CITY     CLOUDY    65  46  50 W14       29.73F
CHARLES CITY   CLOUDY    64  43  45 W15G21    29.72F
OELWEIN        MOCLDY    63  45  51 W13       29.73F
$$

...ELSEWHERE IN IOWA...


CITY           SKY/WX    TMP DP  RH WIND       PRES   REMARKS
DES MOINES     MOCLDY    65  42  43 W8        29.83F
IOWA CITY      CLOUDY    63  42  46 SW8       29.80F
FORT DODGE     CLEAR     63  45  51 W13       29.79F
MARSHALLTOWN   PTCLDY    63  44  50 W15       29.78F
CEDAR RAPIDS   MOCLDY    61  46  57 W10       29.77F
$$

...NORTHERN ILLINOIS...


CITY           SKY/WX    TMP DP  RH WIND       PRES   REMARKS
CHICAGO-OHARE  CLOUDY    62  39  42 SW13      29.76F
CHICAGO-MIDWAY CLOUDY    64  37  36 W12       29.77F
MOLINE         CLOUDY    64  39  39 SW12      29.79F
ROCKFORD       CLOUDY    62  41  46 SW9       29.77F
PEORIA         CLOUDY    62  37  39 SW7       29.85S
$$

NOTE: "FAIR" INDICATES FEW OR NO CLOUDS BELOW 12,000 FEET WITH NO
SIGNIFICANT WEATHER AND/OR OBSTRUCTIONS TO VISIBILITY. WIND
SPEEDS ARE IN MILES-PER-HOUR.




USA.gov is the U.S. government's official web portal to all federal, state and local government web resources and services.